Year,Month,Day,Hour,Minute,Value (Times are PST for temperature in C)
2007,07,15,00,00,19.90
2007,07,15,00,01,19.90
2007,07,15,00,02,19.90
2007,07,15,00,03,19.90
2007,07,15,00,04,19.90
2007,07,15,00,05,19.90
2007,07,15,00,06,19.90
2007,07,15,00,07,19.90
2007,07,15,00,08,19.90
2007,07,15,00,09,19.80
2007,07,15,00,10,19.80
2007,07,15,00,11,19.80
2007,07,15,00,12,19.80
2007,07,15,00,13,19.80
2007,07,15,00,14,19.80
2007,07,15,00,15,19.80
2007,07,15,00,16,19.80
2007,07,15,00,17,19.80
2007,07,15,00,18,19.80
2007,07,15,00,19,19.80
2007,07,15,00,20,19.80
2007,07,15,00,21,19.70
2007,07,15,00,22,19.70
2007,07,15,00,23,19.60
2007,07,15,00,24,19.60
2007,07,15,00,25,19.60
2007,07,15,00,26,19.60
2007,07,15,00,27,19.60
2007,07,15,00,28,19.50
2007,07,15,00,29,19.50
2007,07,15,00,30,19.50
2007,07,15,00,31,19.40
2007,07,15,00,32,19.40
2007,07,15,00,33,19.40
2007,07,15,00,34,19.40
2007,07,15,00,35,19.40
2007,07,15,00,36,19.40
2007,07,15,00,37,19.40
2007,07,15,00,38,19.40
2007,07,15,00,39,19.30
2007,07,15,00,40,19.30
2007,07,15,00,41,19.30
2007,07,15,00,42,19.30
2007,07,15,00,43,19.30
2007,07,15,00,44,19.30
2007,07,15,00,45,19.30
2007,07,15,00,46,19.20
2007,07,15,00,47,19.20
2007,07,15,00,48,19.20
2007,07,15,00,49,19.20
2007,07,15,00,50,19.20
2007,07,15,00,51,19.20
2007,07,15,00,52,19.20
2007,07,15,00,53,19.10
2007,07,15,00,54,19.10
2007,07,15,00,55,19.10
2007,07,15,00,56,19.10
2007,07,15,00,57,19.10
2007,07,15,00,58,19.10
2007,07,15,00,59,19.10
2007,07,15,01,00,19.10
2007,07,15,01,01,19.00
2007,07,15,01,02,19.00
2007,07,15,01,03,19.00
2007,07,15,01,04,19.00
2007,07,15,01,05,19.00
2007,07,15,01,06,19.00
2007,07,15,01,07,18.90
2007,07,15,01,08,18.90
2007,07,15,01,09,18.90
2007,07,15,01,10,18.90
2007,07,15,01,11,18.90
2007,07,15,01,12,18.90
2007,07,15,01,13,18.90
2007,07,15,01,14,18.90
2007,07,15,01,15,18.90
2007,07,15,01,16,18.90
2007,07,15,01,17,18.90
2007,07,15,01,18,18.90
2007,07,15,01,19,18.90
2007,07,15,01,20,18.90
2007,07,15,01,21,18.90
2007,07,15,01,22,18.90
2007,07,15,01,23,18.90
2007,07,15,01,24,18.90
2007,07,15,01,25,18.90
2007,07,15,01,26,18.80
2007,07,15,01,27,18.80
2007,07,15,01,28,18.80
2007,07,15,01,29,18.80
2007,07,15,01,30,18.80
2007,07,15,01,31,18.80
2007,07,15,01,32,18.80
2007,07,15,01,33,18.80
2007,07,15,01,34,18.80
2007,07,15,01,35,18.80
2007,07,15,01,36,18.80
2007,07,15,01,37,18.80
2007,07,15,01,38,18.80
2007,07,15,01,39,18.80
2007,07,15,01,40,18.80
2007,07,15,01,41,18.80
2007,07,15,01,42,18.80
2007,07,15,01,43,18.70
2007,07,15,01,44,18.70
2007,07,15,01,45,18.70
2007,07,15,01,46,18.70
2007,07,15,01,47,18.70
2007,07,15,01,48,18.70
2007,07,15,01,49,18.70
2007,07,15,01,50,18.60
2007,07,15,01,51,18.60
2007,07,15,01,52,18.60
2007,07,15,01,53,18.50
2007,07,15,01,54,18.50
2007,07,15,01,55,18.40
2007,07,15,01,56,18.40
2007,07,15,01,57,18.40
2007,07,15,01,58,18.30
2007,07,15,01,59,18.30
2007,07,15,02,00,18.30
2007,07,15,02,01,18.30
2007,07,15,02,02,18.30
2007,07,15,02,03,18.30
2007,07,15,02,04,18.30
2007,07,15,02,05,18.30
2007,07,15,02,06,18.20
2007,07,15,02,07,18.20
2007,07,15,02,08,18.20
2007,07,15,02,09,18.20
2007,07,15,02,10,18.20
2007,07,15,02,11,18.20
2007,07,15,02,12,18.20
2007,07,15,02,13,18.20
2007,07,15,02,14,18.30
2007,07,15,02,15,18.30
2007,07,15,02,16,18.30
2007,07,15,02,17,18.30
2007,07,15,02,18,18.30
2007,07,15,02,19,18.40
2007,07,15,02,20,18.40
2007,07,15,02,21,18.50
2007,07,15,02,22,18.50
2007,07,15,02,23,18.60
2007,07,15,02,24,18.60
2007,07,15,02,25,18.60
2007,07,15,02,26,18.60
2007,07,15,02,27,18.60
2007,07,15,02,28,18.70
2007,07,15,02,29,18.70
2007,07,15,02,30,18.60
2007,07,15,02,31,18.60
2007,07,15,02,32,18.50
2007,07,15,02,33,18.50
2007,07,15,02,34,18.50
2007,07,15,02,35,18.40
2007,07,15,02,36,18.40
2007,07,15,02,37,18.40
2007,07,15,02,38,18.40
2007,07,15,02,39,18.40
2007,07,15,02,40,18.40
2007,07,15,02,41,18.30
2007,07,15,02,42,18.30
2007,07,15,02,43,18.30
2007,07,15,02,44,18.30
2007,07,15,02,45,18.30
2007,07,15,02,46,18.30
2007,07,15,02,47,18.30
2007,07,15,02,48,18.30
2007,07,15,02,49,18.30
2007,07,15,02,50,18.30
2007,07,15,02,51,18.30
2007,07,15,02,52,18.20
2007,07,15,02,53,18.20
2007,07,15,02,54,18.20
2007,07,15,02,55,18.20
2007,07,15,02,56,18.20
2007,07,15,02,57,18.20
2007,07,15,02,58,18.20
2007,07,15,02,59,18.20
2007,07,15,03,00,18.20
2007,07,15,03,01,18.20
2007,07,15,03,02,18.20
2007,07,15,03,03,18.20
2007,07,15,03,04,18.20
2007,07,15,03,05,18.20
2007,07,15,03,06,18.20
2007,07,15,03,07,18.20
2007,07,15,03,08,18.20
2007,07,15,03,09,18.10
2007,07,15,03,10,18.10
2007,07,15,03,11,18.10
2007,07,15,03,12,18.10
2007,07,15,03,13,18.10
2007,07,15,03,14,18.10
2007,07,15,03,15,18.10
2007,07,15,03,16,18.10
2007,07,15,03,17,18.10
2007,07,15,03,18,18.10
2007,07,15,03,19,18.10
2007,07,15,03,20,18.10
2007,07,15,03,21,18.10
2007,07,15,03,22,18.10
2007,07,15,03,23,18.00
2007,07,15,03,24,18.10
2007,07,15,03,25,18.10
2007,07,15,03,26,18.00
2007,07,15,03,27,18.00
2007,07,15,03,28,18.00
2007,07,15,03,29,18.00
2007,07,15,03,30,18.00
2007,07,15,03,31,18.10
2007,07,15,03,32,18.10
2007,07,15,03,33,18.10
2007,07,15,03,34,18.10
2007,07,15,03,35,18.10
2007,07,15,03,36,18.10
2007,07,15,03,37,18.10
2007,07,15,03,38,18.10
2007,07,15,03,39,18.10
2007,07,15,03,40,18.10
2007,07,15,03,41,18.10
2007,07,15,03,42,18.10
2007,07,15,03,43,18.10
2007,07,15,03,44,18.00
2007,07,15,03,45,18.00
2007,07,15,03,46,17.90
2007,07,15,03,47,17.90
2007,07,15,03,48,17.90
2007,07,15,03,49,17.90
2007,07,15,03,50,17.80
2007,07,15,03,51,17.80
2007,07,15,03,52,17.80
2007,07,15,03,53,17.80
2007,07,15,03,54,17.80
2007,07,15,03,55,17.80
2007,07,15,03,56,17.80
2007,07,15,03,57,17.80
2007,07,15,03,58,17.70
2007,07,15,03,59,17.70
2007,07,15,04,00,17.70
2007,07,15,04,01,17.70
2007,07,15,04,02,17.70
2007,07,15,04,03,17.80
2007,07,15,04,04,17.80
2007,07,15,04,05,17.80
2007,07,15,04,06,17.80
2007,07,15,04,07,17.80
2007,07,15,04,08,17.80
2007,07,15,04,09,17.80
2007,07,15,04,10,17.80
2007,07,15,04,11,17.80
2007,07,15,04,12,17.80
2007,07,15,04,13,17.80
2007,07,15,04,14,17.80
2007,07,15,04,15,17.80
2007,07,15,04,16,17.80
2007,07,15,04,17,17.80
2007,07,15,04,18,17.80
2007,07,15,04,19,17.80
2007,07,15,04,20,17.70
2007,07,15,04,21,17.70
2007,07,15,04,22,17.70
2007,07,15,04,23,17.70
2007,07,15,04,24,17.70
2007,07,15,04,25,17.80
2007,07,15,04,26,17.80
2007,07,15,04,27,17.80
2007,07,15,04,28,17.80
2007,07,15,04,29,17.80
2007,07,15,04,30,17.80
2007,07,15,04,31,17.80
2007,07,15,04,32,17.80
2007,07,15,04,33,17.80
2007,07,15,04,34,17.80
2007,07,15,04,35,17.80
2007,07,15,04,36,17.80
2007,07,15,04,37,17.80
2007,07,15,04,38,17.80
2007,07,15,04,39,17.80
2007,07,15,04,40,17.80
2007,07,15,04,41,17.80
2007,07,15,04,42,17.80
2007,07,15,04,43,17.80
2007,07,15,04,44,17.80
2007,07,15,04,45,17.80
2007,07,15,04,46,17.80
2007,07,15,04,47,17.80
2007,07,15,04,48,17.80
2007,07,15,04,49,17.80
2007,07,15,04,50,17.80
2007,07,15,04,51,17.80
2007,07,15,04,52,17.80
2007,07,15,04,53,17.80
2007,07,15,04,54,17.70
2007,07,15,04,55,17.70
2007,07,15,04,56,17.70
2007,07,15,04,57,17.70
2007,07,15,04,58,17.70
2007,07,15,04,59,17.80
2007,07,15,05,00,17.80
2007,07,15,05,01,17.80
2007,07,15,05,02,17.80
2007,07,15,05,03,17.80
2007,07,15,05,04,17.80
2007,07,15,05,05,17.90
2007,07,15,05,06,17.90
2007,07,15,05,07,17.90
2007,07,15,05,08,17.90
2007,07,15,05,09,18.00
2007,07,15,05,10,18.00
2007,07,15,05,11,18.00
2007,07,15,05,12,17.90
2007,07,15,05,13,17.90
2007,07,15,05,14,17.90
2007,07,15,05,15,17.90
2007,07,15,05,16,17.90
2007,07,15,05,17,17.90
2007,07,15,05,18,17.90
2007,07,15,05,19,17.90
2007,07,15,05,20,17.90
2007,07,15,05,21,17.80
2007,07,15,05,22,17.80
2007,07,15,05,23,17.80
2007,07,15,05,24,17.80
2007,07,15,05,25,17.80
2007,07,15,05,26,17.90
2007,07,15,05,27,17.90
2007,07,15,05,28,17.90
2007,07,15,05,29,17.80
2007,07,15,05,30,17.90
2007,07,15,05,31,17.90
2007,07,15,05,32,17.90
2007,07,15,05,33,17.90
2007,07,15,05,34,17.90
2007,07,15,05,35,17.90
2007,07,15,05,36,17.90
2007,07,15,05,37,17.90
2007,07,15,05,38,17.90
2007,07,15,05,39,17.90
2007,07,15,05,40,17.90
2007,07,15,05,41,17.90
2007,07,15,05,42,17.90
2007,07,15,05,43,17.90
2007,07,15,05,44,17.90
2007,07,15,05,45,17.90
2007,07,15,05,46,18.00
2007,07,15,05,47,18.00
2007,07,15,05,48,18.10
2007,07,15,05,49,18.10
2007,07,15,05,50,18.10
2007,07,15,05,51,18.20
2007,07,15,05,52,18.20
2007,07,15,05,53,18.20
2007,07,15,05,54,18.20
2007,07,15,05,55,18.20
2007,07,15,05,56,18.20
2007,07,15,05,57,18.10
2007,07,15,05,58,18.10
2007,07,15,05,59,18.10
2007,07,15,06,00,18.10
2007,07,15,06,01,18.10
2007,07,15,06,02,18.00
2007,07,15,06,03,18.00
2007,07,15,06,04,18.00
2007,07,15,06,05,17.90
2007,07,15,06,06,17.90
2007,07,15,06,07,17.90
2007,07,15,06,08,17.90
2007,07,15,06,09,17.90
2007,07,15,06,10,17.90
2007,07,15,06,11,17.90
2007,07,15,06,12,17.90
2007,07,15,06,13,18.00
2007,07,15,06,14,18.00
2007,07,15,06,15,18.00
2007,07,15,06,16,18.00
2007,07,15,06,17,18.10
2007,07,15,06,18,18.10
2007,07,15,06,19,18.10
2007,07,15,06,20,18.20
2007,07,15,06,21,18.20
2007,07,15,06,22,18.20
2007,07,15,06,23,18.20
2007,07,15,06,24,18.20
2007,07,15,06,25,18.20
2007,07,15,06,26,18.20
2007,07,15,06,27,18.20
2007,07,15,06,28,18.20
2007,07,15,06,29,18.20
2007,07,15,06,30,18.10
2007,07,15,06,31,18.10
2007,07,15,06,32,18.10
2007,07,15,06,33,18.10
2007,07,15,06,34,18.10
2007,07,15,06,35,18.10
2007,07,15,06,36,18.10
2007,07,15,06,37,18.10
2007,07,15,06,38,18.10
2007,07,15,06,39,18.10
2007,07,15,06,40,18.20
2007,07,15,06,41,18.20
2007,07,15,06,42,18.20
2007,07,15,06,43,18.20
2007,07,15,06,44,18.20
2007,07,15,06,45,18.20
2007,07,15,06,46,18.20
2007,07,15,06,47,18.20
2007,07,15,06,48,18.20
2007,07,15,06,49,18.20
2007,07,15,06,50,18.20
2007,07,15,06,51,18.20
2007,07,15,06,52,18.20
2007,07,15,06,53,18.30
2007,07,15,06,54,18.30
2007,07,15,06,55,18.30
2007,07,15,06,56,18.30
2007,07,15,06,57,18.30
2007,07,15,06,58,18.30
2007,07,15,06,59,18.30
2007,07,15,07,00,18.30
2007,07,15,07,01,18.30
2007,07,15,07,02,18.30
2007,07,15,07,03,18.30
2007,07,15,07,04,18.30
2007,07,15,07,05,18.30
2007,07,15,07,06,18.30
2007,07,15,07,07,18.30
2007,07,15,07,08,18.30
2007,07,15,07,09,18.30
2007,07,15,07,10,18.40
2007,07,15,07,11,18.40
2007,07,15,07,12,18.40
2007,07,15,07,13,18.40
2007,07,15,07,14,18.40
2007,07,15,07,15,18.40
2007,07,15,07,16,18.40
2007,07,15,07,17,18.40
2007,07,15,07,18,18.40
2007,07,15,07,19,18.40
2007,07,15,07,20,18.40
2007,07,15,07,21,18.40
2007,07,15,07,22,18.40
2007,07,15,07,23,18.50
2007,07,15,07,24,18.50
2007,07,15,07,25,18.50
2007,07,15,07,26,18.50
2007,07,15,07,27,18.50
2007,07,15,07,28,18.50
2007,07,15,07,29,18.60
2007,07,15,07,30,18.60
2007,07,15,07,31,18.60
2007,07,15,07,32,18.60
2007,07,15,07,33,18.60
2007,07,15,07,34,18.60
2007,07,15,07,35,18.60
2007,07,15,07,36,18.60
2007,07,15,07,37,18.60
2007,07,15,07,38,18.60
2007,07,15,07,39,18.60
2007,07,15,07,40,18.60
2007,07,15,07,41,18.60
2007,07,15,07,42,18.60
2007,07,15,07,43,18.50
2007,07,15,07,44,18.50
2007,07,15,07,45,18.50
2007,07,15,07,46,18.50
2007,07,15,07,47,18.50
2007,07,15,07,48,18.50
2007,07,15,07,49,18.50
2007,07,15,07,50,18.60
2007,07,15,07,51,18.60
2007,07,15,07,52,18.60
2007,07,15,07,53,18.60
2007,07,15,07,54,18.60
2007,07,15,07,55,18.60
2007,07,15,07,56,18.60
2007,07,15,07,57,18.60
2007,07,15,07,58,18.60
2007,07,15,07,59,18.70
2007,07,15,08,00,18.70
2007,07,15,08,01,18.70
2007,07,15,08,02,18.70
2007,07,15,08,03,18.70
2007,07,15,08,04,18.70
2007,07,15,08,05,18.70
2007,07,15,08,06,18.70
2007,07,15,08,07,18.70
2007,07,15,08,08,18.60
2007,07,15,08,09,18.60
2007,07,15,08,10,18.60
2007,07,15,08,11,18.60
2007,07,15,08,12,18.60
2007,07,15,08,13,18.60
2007,07,15,08,14,18.60
2007,07,15,08,15,18.60
2007,07,15,08,16,18.60
2007,07,15,08,17,18.60
2007,07,15,08,18,18.60
2007,07,15,08,19,18.50
2007,07,15,08,20,18.50
2007,07,15,08,21,18.50
2007,07,15,08,22,18.60
2007,07,15,08,23,18.60
2007,07,15,08,24,18.60
2007,07,15,08,25,18.60
2007,07,15,08,26,18.60
2007,07,15,08,27,18.60
2007,07,15,08,28,18.60
2007,07,15,08,29,18.60
2007,07,15,08,30,18.60
2007,07,15,08,31,18.70
2007,07,15,08,32,18.70
2007,07,15,08,33,18.70
2007,07,15,08,34,18.70
2007,07,15,08,35,18.70
2007,07,15,08,36,18.70
2007,07,15,08,37,18.60
2007,07,15,08,38,18.60
2007,07,15,08,39,18.60
2007,07,15,08,40,18.50
2007,07,15,08,41,18.50
2007,07,15,08,42,18.40
2007,07,15,08,43,18.40
2007,07,15,08,44,18.40
2007,07,15,08,45,18.40
2007,07,15,08,46,18.30
2007,07,15,08,47,18.30
2007,07,15,08,48,18.30
2007,07,15,08,49,18.30
2007,07,15,08,50,18.30
2007,07,15,08,51,18.30
2007,07,15,08,52,18.30
2007,07,15,08,53,18.30
2007,07,15,08,54,18.30
2007,07,15,08,55,18.30
2007,07,15,08,56,18.30
2007,07,15,08,57,18.30
2007,07,15,08,58,18.30
2007,07,15,08,59,18.30
2007,07,15,09,00,18.30
2007,07,15,09,01,18.30
2007,07,15,09,02,18.30
2007,07,15,09,03,18.30
2007,07,15,09,04,18.30
2007,07,15,09,05,18.40
2007,07,15,09,06,18.40
2007,07,15,09,07,18.40
2007,07,15,09,08,18.40
2007,07,15,09,09,18.40
2007,07,15,09,10,18.50
2007,07,15,09,11,18.50
2007,07,15,09,12,18.50
2007,07,15,09,13,18.60
2007,07,15,09,14,18.60
2007,07,15,09,15,18.60
2007,07,15,09,16,18.70
2007,07,15,09,17,18.70
2007,07,15,09,18,18.60
2007,07,15,09,19,18.60
2007,07,15,09,20,18.60
2007,07,15,09,21,18.70
2007,07,15,09,22,18.60
2007,07,15,09,23,18.60
2007,07,15,09,24,18.60
2007,07,15,09,25,18.60
2007,07,15,09,26,18.60
2007,07,15,09,27,18.60
2007,07,15,09,28,18.60
2007,07,15,09,29,18.60
2007,07,15,09,30,18.60
2007,07,15,09,31,18.50
2007,07,15,09,32,18.50
2007,07,15,09,33,18.50
2007,07,15,09,34,18.40
2007,07,15,09,35,18.40
2007,07,15,09,36,18.40
2007,07,15,09,37,18.50
2007,07,15,09,38,18.50
2007,07,15,09,39,18.50
2007,07,15,09,40,18.50
2007,07,15,09,41,18.60
2007,07,15,09,42,18.60
2007,07,15,09,43,18.70
2007,07,15,09,44,18.70
2007,07,15,09,45,18.80
2007,07,15,09,46,18.80
2007,07,15,09,47,18.80
2007,07,15,09,48,18.90
2007,07,15,09,49,18.90
2007,07,15,09,50,19.00
2007,07,15,09,51,19.10
2007,07,15,09,52,19.20
2007,07,15,09,53,19.30
2007,07,15,09,54,19.30
2007,07,15,09,55,19.30
2007,07,15,09,56,19.40
2007,07,15,09,57,19.40
2007,07,15,09,58,19.40
2007,07,15,09,59,19.40
2007,07,15,10,00,19.50
2007,07,15,10,01,19.50
2007,07,15,10,02,19.60
2007,07,15,10,03,19.60
2007,07,15,10,04,19.60
2007,07,15,10,05,19.60
2007,07,15,10,06,19.60
2007,07,15,10,07,19.60
2007,07,15,10,08,19.70
2007,07,15,10,09,19.70
2007,07,15,10,10,19.70
2007,07,15,10,11,19.80
2007,07,15,10,12,19.80
2007,07,15,10,13,19.90
2007,07,15,10,14,20.00
2007,07,15,10,15,20.00
2007,07,15,10,16,20.00
2007,07,15,10,17,19.90
2007,07,15,10,18,19.90
2007,07,15,10,19,19.80
2007,07,15,10,20,19.70
2007,07,15,10,21,19.70
2007,07,15,10,22,19.60
2007,07,15,10,23,19.60
2007,07,15,10,24,19.60
2007,07,15,10,25,19.60
2007,07,15,10,26,19.50
2007,07,15,10,27,19.50
2007,07,15,10,28,19.50
2007,07,15,10,29,19.40
2007,07,15,10,30,19.40
2007,07,15,10,31,19.40
2007,07,15,10,32,19.50
2007,07,15,10,33,19.60
2007,07,15,10,34,19.80
2007,07,15,10,35,19.90
2007,07,15,10,36,19.90
2007,07,15,10,37,20.00
2007,07,15,10,38,20.10
2007,07,15,10,39,20.10
2007,07,15,10,40,20.10
2007,07,15,10,41,20.10
2007,07,15,10,42,20.10
2007,07,15,10,43,20.10
2007,07,15,10,44,20.10
2007,07,15,10,45,20.10
2007,07,15,10,46,20.00
2007,07,15,10,47,19.90
2007,07,15,10,48,19.80
2007,07,15,10,49,19.70
2007,07,15,10,50,19.70
2007,07,15,10,51,19.70
2007,07,15,10,52,19.60
2007,07,15,10,53,19.60
2007,07,15,10,54,19.50
2007,07,15,10,55,19.60
2007,07,15,10,56,19.60
2007,07,15,10,57,19.60
2007,07,15,10,58,19.60
2007,07,15,10,59,19.50
2007,07,15,11,00,19.50
2007,07,15,11,01,19.50
2007,07,15,11,02,19.40
2007,07,15,11,03,19.30
2007,07,15,11,04,19.20
2007,07,15,11,05,19.20
2007,07,15,11,06,19.10
2007,07,15,11,07,19.10
2007,07,15,11,08,19.10
2007,07,15,11,09,19.20
2007,07,15,11,10,19.20
2007,07,15,11,11,19.20
2007,07,15,11,12,19.20
2007,07,15,11,13,19.20
2007,07,15,11,14,19.20
2007,07,15,11,15,19.10
2007,07,15,11,16,19.10
2007,07,15,11,17,19.10
2007,07,15,11,18,19.20
2007,07,15,11,19,19.30
2007,07,15,11,20,19.40
2007,07,15,11,21,19.50
2007,07,15,11,22,19.60
2007,07,15,11,23,19.60
2007,07,15,11,24,19.70
2007,07,15,11,25,19.70
2007,07,15,11,26,19.70
2007,07,15,11,27,19.80
2007,07,15,11,28,19.80
2007,07,15,11,29,19.80
2007,07,15,11,30,19.80
2007,07,15,11,31,19.80
2007,07,15,11,32,19.70
2007,07,15,11,33,19.70
2007,07,15,11,34,19.60
2007,07,15,11,35,19.60
2007,07,15,11,36,19.70
2007,07,15,11,37,19.60
2007,07,15,11,38,19.60
2007,07,15,11,39,19.60
2007,07,15,11,40,19.60
2007,07,15,11,41,19.60
2007,07,15,11,42,19.60
2007,07,15,11,43,19.60
2007,07,15,11,44,19.60
2007,07,15,11,45,19.70
2007,07,15,11,46,19.70
2007,07,15,11,47,19.70
2007,07,15,11,48,19.70
2007,07,15,11,49,19.60
2007,07,15,11,50,19.70
2007,07,15,11,51,19.80
2007,07,15,11,52,19.80
2007,07,15,11,53,19.90
2007,07,15,11,54,19.80
2007,07,15,11,55,19.80
2007,07,15,11,56,19.80
2007,07,15,11,57,19.70
2007,07,15,11,58,19.80
2007,07,15,11,59,19.90
2007,07,15,12,00,19.90
2007,07,15,12,01,19.90
2007,07,15,12,02,19.90
2007,07,15,12,03,19.90
2007,07,15,12,04,19.90
2007,07,15,12,05,19.90
2007,07,15,12,06,19.90
2007,07,15,12,07,19.80
2007,07,15,12,08,19.80
2007,07,15,12,09,19.80
2007,07,15,12,10,19.70
2007,07,15,12,11,19.70
2007,07,15,12,12,19.80
2007,07,15,12,13,19.90
2007,07,15,12,14,20.00
2007,07,15,12,15,20.00
2007,07,15,12,16,20.10
2007,07,15,12,17,20.20
2007,07,15,12,18,20.30
2007,07,15,12,19,20.30
2007,07,15,12,20,20.30
2007,07,15,12,21,20.40
2007,07,15,12,22,20.50
2007,07,15,12,23,20.70
2007,07,15,12,24,20.80
2007,07,15,12,25,20.90
2007,07,15,12,26,21.00
2007,07,15,12,27,21.10
2007,07,15,12,28,21.30
2007,07,15,12,29,21.30
2007,07,15,12,30,21.30
2007,07,15,12,31,21.30
2007,07,15,12,32,21.30
2007,07,15,12,33,21.30
2007,07,15,12,34,21.40
2007,07,15,12,35,21.50
2007,07,15,12,36,21.60
2007,07,15,12,37,21.70
2007,07,15,12,38,21.70
2007,07,15,12,39,21.80
2007,07,15,12,40,21.80
2007,07,15,12,41,21.90
2007,07,15,12,42,21.90
2007,07,15,12,43,22.00
2007,07,15,12,44,22.10
2007,07,15,12,45,22.10
2007,07,15,12,46,22.20
2007,07,15,12,47,22.30
2007,07,15,12,48,22.30
2007,07,15,12,49,22.20
2007,07,15,12,50,22.10
2007,07,15,12,51,22.00
2007,07,15,12,52,21.90
2007,07,15,12,53,21.80
2007,07,15,12,54,21.70
2007,07,15,12,55,21.60
2007,07,15,12,56,21.50
2007,07,15,12,57,21.40
2007,07,15,12,58,21.40
2007,07,15,12,59,21.30
2007,07,15,13,00,21.30
2007,07,15,13,01,21.40
2007,07,15,13,02,21.40
2007,07,15,13,03,21.40
2007,07,15,13,04,21.40
2007,07,15,13,05,21.50
2007,07,15,13,06,21.50
2007,07,15,13,07,21.60
2007,07,15,13,08,21.50
2007,07,15,13,09,21.50
2007,07,15,13,10,21.40
2007,07,15,13,11,21.50
2007,07,15,13,12,21.60
2007,07,15,13,13,21.60
2007,07,15,13,14,21.60
2007,07,15,13,15,21.60
2007,07,15,13,16,21.60
2007,07,15,13,17,21.70
2007,07,15,13,18,21.80
2007,07,15,13,19,21.90
2007,07,15,13,20,22.10
2007,07,15,13,21,22.20
2007,07,15,13,22,22.20
2007,07,15,13,23,22.10
2007,07,15,13,24,22.00
2007,07,15,13,25,21.90
2007,07,15,13,26,21.80
2007,07,15,13,27,21.80
2007,07,15,13,28,21.80
2007,07,15,13,29,21.80
2007,07,15,13,30,21.80
2007,07,15,13,31,21.80
2007,07,15,13,32,21.80
2007,07,15,13,33,21.80
2007,07,15,13,34,21.80
2007,07,15,13,35,21.90
2007,07,15,13,36,21.90
2007,07,15,13,37,22.00
2007,07,15,13,38,22.00
2007,07,15,13,39,22.10
2007,07,15,13,40,22.10
2007,07,15,13,41,22.30
2007,07,15,13,42,22.30
2007,07,15,13,43,22.30
2007,07,15,13,44,22.20
2007,07,15,13,45,22.20
2007,07,15,13,46,22.20
2007,07,15,13,47,22.20
2007,07,15,13,48,22.20
2007,07,15,13,49,22.10
2007,07,15,13,50,21.90
2007,07,15,13,51,21.80
2007,07,15,13,52,21.60
2007,07,15,13,53,21.60
2007,07,15,13,54,21.60
2007,07,15,13,55,21.60
2007,07,15,13,56,21.60
2007,07,15,13,57,21.70
2007,07,15,13,58,21.80
2007,07,15,13,59,21.80
2007,07,15,14,00,21.80
2007,07,15,14,01,21.80
2007,07,15,14,02,21.80
2007,07,15,14,03,21.80
2007,07,15,14,04,21.80
2007,07,15,14,05,21.70
2007,07,15,14,06,21.60
2007,07,15,14,07,21.50
2007,07,15,14,08,21.40
2007,07,15,14,09,21.40
2007,07,15,14,10,21.40
2007,07,15,14,11,21.40
2007,07,15,14,12,21.40
2007,07,15,14,13,21.50
2007,07,15,14,14,21.60
2007,07,15,14,15,21.70
2007,07,15,14,16,21.80
2007,07,15,14,17,22.00
2007,07,15,14,18,22.10
2007,07,15,14,19,22.20
2007,07,15,14,20,22.20
2007,07,15,14,21,22.30
2007,07,15,14,22,22.30
2007,07,15,14,23,22.30
2007,07,15,14,24,22.30
2007,07,15,14,25,22.30
2007,07,15,14,26,22.40
2007,07,15,14,27,22.50
2007,07,15,14,28,22.60
2007,07,15,14,29,22.70
2007,07,15,14,30,22.80
2007,07,15,14,31,22.70
2007,07,15,14,32,22.80
2007,07,15,14,33,22.80
2007,07,15,14,34,22.90
2007,07,15,14,35,22.90
2007,07,15,14,36,23.00
2007,07,15,14,37,23.10
2007,07,15,14,38,23.00
2007,07,15,14,39,22.90
2007,07,15,14,40,22.90
2007,07,15,14,41,22.80
2007,07,15,14,42,22.90
2007,07,15,14,43,22.90
2007,07,15,14,44,23.00
2007,07,15,14,45,23.00
2007,07,15,14,46,23.00
2007,07,15,14,47,23.00
2007,07,15,14,48,23.00
2007,07,15,14,49,23.00
2007,07,15,14,50,22.90
2007,07,15,14,51,22.80
2007,07,15,14,52,22.70
2007,07,15,14,53,22.70
2007,07,15,14,54,22.70
2007,07,15,14,55,22.70
2007,07,15,14,56,22.60
2007,07,15,14,57,22.60
2007,07,15,14,58,22.50
2007,07,15,14,59,22.40
2007,07,15,15,00,22.40
2007,07,15,15,01,22.30
2007,07,15,15,02,22.20
2007,07,15,15,03,22.20
2007,07,15,15,04,22.20
2007,07,15,15,05,22.20
2007,07,15,15,06,22.30
2007,07,15,15,07,22.30
2007,07,15,15,08,22.30
2007,07,15,15,09,22.40
2007,07,15,15,10,22.40
2007,07,15,15,11,22.40
2007,07,15,15,12,22.40
2007,07,15,15,13,22.40
2007,07,15,15,14,22.30
2007,07,15,15,15,22.30
2007,07,15,15,16,22.10
2007,07,15,15,17,22.00
2007,07,15,15,18,21.90
2007,07,15,15,19,21.70
2007,07,15,15,20,21.50
2007,07,15,15,21,21.40
2007,07,15,15,22,21.30
2007,07,15,15,23,21.30
2007,07,15,15,24,21.20
2007,07,15,15,25,21.20
2007,07,15,15,26,21.20
2007,07,15,15,27,21.30
2007,07,15,15,28,21.30
2007,07,15,15,29,21.40
2007,07,15,15,30,21.40
2007,07,15,15,31,21.50
2007,07,15,15,32,21.50
2007,07,15,15,33,21.60
2007,07,15,15,34,21.60
2007,07,15,15,35,21.60
2007,07,15,15,36,21.70
2007,07,15,15,37,21.70
2007,07,15,15,38,21.70
2007,07,15,15,39,21.70
2007,07,15,15,40,21.70
2007,07,15,15,41,21.80
2007,07,15,15,42,21.80
2007,07,15,15,43,21.80
2007,07,15,15,44,21.80
2007,07,15,15,45,21.90
2007,07,15,15,46,21.90
2007,07,15,15,47,22.00
2007,07,15,15,48,22.00
2007,07,15,15,49,22.10
2007,07,15,15,50,22.10
2007,07,15,15,51,22.00
2007,07,15,15,52,22.00
2007,07,15,15,53,21.90
2007,07,15,15,54,21.80
2007,07,15,15,55,21.80
2007,07,15,15,56,21.80
2007,07,15,15,57,21.90
2007,07,15,15,58,21.90
2007,07,15,15,59,22.00
2007,07,15,16,00,21.90
2007,07,15,16,01,21.90
2007,07,15,16,02,21.80
2007,07,15,16,03,21.80
2007,07,15,16,04,21.80
2007,07,15,16,05,21.80
2007,07,15,16,06,21.80
2007,07,15,16,07,21.70
2007,07,15,16,08,21.70
2007,07,15,16,09,21.70
2007,07,15,16,10,21.70
2007,07,15,16,11,21.70
2007,07,15,16,12,21.70
2007,07,15,16,13,21.80
2007,07,15,16,14,21.80
2007,07,15,16,15,21.80
2007,07,15,16,16,21.80
2007,07,15,16,17,21.90
2007,07,15,16,18,22.00
2007,07,15,16,19,22.00
2007,07,15,16,20,22.00
2007,07,15,16,21,22.10
2007,07,15,16,22,22.10
2007,07,15,16,23,22.20
2007,07,15,16,24,22.30
2007,07,15,16,25,22.40
2007,07,15,16,26,22.40
2007,07,15,16,27,22.40
2007,07,15,16,28,22.40
2007,07,15,16,29,22.50
2007,07,15,16,30,22.50
2007,07,15,16,31,22.60
2007,07,15,16,32,22.50
2007,07,15,16,33,22.50
2007,07,15,16,34,22.50
2007,07,15,16,35,22.50
2007,07,15,16,36,22.50
2007,07,15,16,37,22.40
2007,07,15,16,38,22.40
2007,07,15,16,39,22.40
2007,07,15,16,40,22.40
2007,07,15,16,41,22.40
2007,07,15,16,42,22.30
2007,07,15,16,43,22.20
2007,07,15,16,44,22.10
2007,07,15,16,45,21.90
2007,07,15,16,46,21.90
2007,07,15,16,47,21.80
2007,07,15,16,48,21.80
2007,07,15,16,49,21.80
2007,07,15,16,50,21.80
2007,07,15,16,51,21.80
2007,07,15,16,52,21.80
2007,07,15,16,53,21.80
2007,07,15,16,54,21.80
2007,07,15,16,55,21.80
2007,07,15,16,56,21.80
2007,07,15,16,57,21.80
2007,07,15,16,58,21.80
2007,07,15,16,59,21.70
2007,07,15,17,00,21.70
2007,07,15,17,01,21.70
2007,07,15,17,02,21.60
2007,07,15,17,03,21.60
2007,07,15,17,04,21.60
2007,07,15,17,05,21.60
2007,07,15,17,06,21.60
2007,07,15,17,07,21.60
2007,07,15,17,08,21.70
2007,07,15,17,09,21.70
2007,07,15,17,10,21.80
2007,07,15,17,11,21.80
2007,07,15,17,12,21.80
2007,07,15,17,13,21.80
2007,07,15,17,14,21.90
2007,07,15,17,15,21.90
2007,07,15,17,16,21.90
2007,07,15,17,17,21.90
2007,07,15,17,18,22.00
2007,07,15,17,19,22.00